STARLINK-11613, 63136

Orbit data source: Space-Track

STARLINK-11613, 63136 is a payload satellite owned by SpaceX/Seattle (US) in LEO that was launched on Mon, 03 Mar 2025 UTC via an FALCON 9 launch vehicle from the Air Force Eastern Test Range (AFETR). Payload-class satellites include a variety of spacecraft equipped with specific instruments for various scientific and technological missions. These include communications satellites like Starlink; space stations such as the ISS; scientific satellites like the Hubble; Earth observation satellites from companies like Planet Labs, Umbra, and HawkEye 360; GPS; miniature CubeSats for education and research; and military/defense satellites.

Loading next visibility...
Identifier
63136, 2025-043E
Orbit
LEO
Country
Flag of USUS
Related business
Manufacturer
SpaceX/Seattle
Mission
Operational Commercial Communications
Bus & Motor
STARLINK V2MD, Unknown motor
Mass
960 kg wet, ~910 kg dry
Launch date (UTC)
2025-03-03 (11 months ago)
Launch vehicle
FALCON 9
Launch site
Air Force Eastern Test Range (AFETR)
Object type
Payload
Rocket body
Debris
Shape & HBR
Box + 2 Pan, 18.1 m
Radar Cross Section
36.964 m², Large (>1 m²)

Expand to show TLE details & history
Last TLE update: 7 hours ago

TLE from 7 hours ago
0 STARLINK-11613
1 63136U 25043E   26037.18574923  .00261219  00000-0  19824-2 0  9997
2 63136  42.9997  80.9456 0001492 249.2691 110.8017 15.70761281 54513
Epoch: 2026-02-06T04:27Z
TLE epoch observation values (Epoch: 2026-02-06T04:27:28.733Z)
Latitude
-0°
Longitude
-122.25137°
Altitude
356.848 km
Speed
7.697 km/s
True Right ascension
05h 23m 46s
True Declination
0° 00' 00"
Sunlit
Object was in full shadow at epoch
Visualization orbit readout
Latitude
Unknown
Longitude
Unknown
Altitude
Unknown
Speed
Unknown
Apparent Right ascension
Unknown
Apparent Declination
Unknown
Sunlit
N/A
Visualization observer readout
Local Sidereal Time
13:37:06
Azimuth
Unknown
Elevation
Unknown
Doppler factor
Unknown
Orbital elements
Apogee altitude
359.707 km
Perigee altitude
357.696 km
Semi-major axis
6,736.839 km
Eccentricity
0.00015
Inclination
42.9997°
RAAN
80.9456°
Arg. of periapsis
249.2691°
True anomaly
110.81768°
Mean anomaly
110.8017°
Eccentric anomaly
110.80969°
Mean motion
3.92517 °/min
Orbital period
91.72 mins
BSTAR
0.0019824
Loading maneuver chart data...
Computing Atmospheric mass density...
Loading historical data...
Loading historical data...
Loading historical data...
Loading historical data...
Loading historical data...
Loading historical data...
Loading historical data...

Documentation

Showing up to 5 results
|